When you browse on this site, cookies collect data to enhance your experience and personalize the content and advertising you see.
Visit our Privacy Policy to learn more. By continuing to use the site, you agree to this use of cookies and data.
  • In Romania
  • List of Countries
  • For 7 days
  • Water Temperature
  • Satellite Maps
  • Weather Map
  • Weather Widgets
  • user-avatar
    Login

    Hourly Weather Luanda

    Today, 24 March, Sunday

    Time Temperature Precipitation Wind Pressure Humidity
    00:00 +29°C° 0 mm 4 mps 752 mmHg 86%
    01:00 +29°C° 0 mm 4 mps 752 mmHg 87%
    02:00 +29°C° 0.1 mm 4 mps 752 mmHg 88%
    03:00 +29°C° 0.1 mm 4 mps 752 mmHg 88%
    04:00 +29°C° 0.1 mm 4 mps 752 mmHg 89%
    05:00 +29°C° 0.1 mm 4 mps 752 mmHg 88%
    06:00 +29°C° 0.1 mm 4 mps 752 mmHg 88%
    07:00 +29°C° 0.1 mm 4 mps 752 mmHg 87%
    08:00 +30°C° 0 mm 4 mps 753 mmHg 82%
    09:00 +32°C° 0 mm 4 mps 753 mmHg 76%
    10:00 +33°C° 0 mm 4 mps 753 mmHg 71%
    11:00 +34°C° 1.8 mm 4 mps 753 mmHg 71%
    12:00 +34°C° 1.8 mm 3 mps 753 mmHg 70%
    13:00 +34°C° 1.8 mm 3 mps 752 mmHg 70%
    14:00 +33°C° 2.6 mm 4 mps 752 mmHg 74%
    15:00 +32°C° 2.6 mm 4 mps 751 mmHg 78%
    16:00 +30°C° 2.6 mm 4 mps 751 mmHg 82%
    17:00 +30°C° 0 mm 4 mps 751 mmHg 84%
    18:00 +29°C° 0 mm 4 mps 751 mmHg 86%
    19:00 +29°C° 0 mm 4 mps 751 mmHg 87%
    20:00 +29°C° 0 mm 3 mps 752 mmHg 88%
    21:00 +29°C° 0 mm 1 mps 752 mmHg 88%
    22:00 +27°C° 0 mm 0 mps 753 mmHg 89%
    23:00 +27°C° 0.2 mm 0 mps 753 mmHg 90%

    Tomorrow, 25 March, Monday

    Time Temperature Precipitation Wind Pressure Humidity
    00:00 +26°C° 0.2 mm 0 mps 752 mmHg 90%
    01:00 +26°C° 0.2 mm 0 mps 752 mmHg 91%
    02:00 +28°C° 0 mm 1 mps 752 mmHg 91%
    03:00 +28°C° 0 mm 2 mps 751 mmHg 91%
    04:00 +28°C° 0 mm 2 mps 751 mmHg 91%
    05:00 +28°C° 0.1 mm 3 mps 751 mmHg 91%
    06:00 +28°C° 0.1 mm 3 mps 751 mmHg 90%
    07:00 +28°C° 0.1 mm 3 mps 752 mmHg 90%
    08:00 +30°C° 0 mm 3 mps 752 mmHg 82%
    09:00 +31°C° 0 mm 3 mps 752 mmHg 74%
    10:00 +34°C° 0 mm 2 mps 753 mmHg 66%
    11:00 +34°C° 0 mm 3 mps 752 mmHg 64%
    12:00 +35°C° 0 mm 3 mps 752 mmHg 62%
    13:00 +35°C° 0 mm 3 mps 751 mmHg 60%
    14:00 +35°C° 0 mm 4 mps 751 mmHg 63%
    15:00 +34°C° 0 mm 4 mps 750 mmHg 66%
    16:00 +34°C° 0 mm 4 mps 750 mmHg 70%
    17:00 +33°C° 0.2 mm 4 mps 750 mmHg 74%
    18:00 +32°C° 0.2 mm 4 mps 751 mmHg 79%
    19:00 +30°C° 0.2 mm 4 mps 752 mmHg 83%
    20:00 +30°C° 0.1 mm 4 mps 752 mmHg 84%
    21:00 +30°C° 0.1 mm 4 mps 753 mmHg 85%
    22:00 +30°C° 0.1 mm 4 mps 753 mmHg 86%
    23:00 +29°C° 2.8 mm 4 mps 753 mmHg 86%

    Day after tomorrow, 26 March, Tuesday

    Time Temperature Precipitation Wind Pressure Humidity
    00:00 +29°C° 2.8 mm 4 mps 753 mmHg 87%
    01:00 +28°C° 2.8 mm 4 mps 752 mmHg 88%
    02:00 +28°C° 1 mm 3 mps 752 mmHg 89%
    03:00 +28°C° 1 mm 3 mps 752 mmHg 89%
    04:00 +28°C° 1 mm 2 mps 752 mmHg 90%
    05:00 +28°C° 1.1 mm 2 mps 752 mmHg 90%
    06:00 +28°C° 1.1 mm 2 mps 753 mmHg 90%
    07:00 +28°C° 1.1 mm 2 mps 753 mmHg 90%
    08:00 +28°C° 2 mm 2 mps 754 mmHg 87%
    09:00 +28°C° 2 mm 1 mps 754 mmHg 85%
    10:00 +29°C° 2 mm 1 mps 755 mmHg 83%
    11:00 +29°C° 0.6 mm 1 mps 754 mmHg 80%
    12:00 +30°C° 0.6 mm 2 mps 754 mmHg 78%
    13:00 +30°C° 0.6 mm 2 mps 753 mmHg 76%
    14:00 +30°C° 0 mm 2 mps 752 mmHg 74%
    15:00 +31°C° 0 mm 3 mps 752 mmHg 72%
    16:00 +31°C° 0 mm 3 mps 751 mmHg 70%
    17:00 +30°C° 0 mm 3 mps 752 mmHg 74%
    18:00 +30°C° 0 mm 3 mps 752 mmHg 77%
    19:00 +29°C° 0 mm 3 mps 753 mmHg 81%
    20:00 +29°C° 0 mm 3 mps 753 mmHg 82%
    21:00 +28°C° 0 mm 3 mps 754 mmHg 84%
    22:00 +28°C° 0 mm 2 mps 754 mmHg 85%
    23:00 +28°C° 0 mm 2 mps 754 mmHg 86%

    27 March, Wednesday

    Time Temperature Precipitation Wind Pressure Humidity
    00:00 +27°C° 0 mm 2 mps 754 mmHg 88%
    01:00 +27°C° 0 mm 2 mps 753 mmHg 89%
    02:00 +27°C° 0 mm 2 mps 753 mmHg 89%
    03:00 +27°C° 0 mm 3 mps 752 mmHg 90%
    04:00 +26°C° 0 mm 3 mps 752 mmHg 90%
    05:00 +26°C° 0 mm 3 mps 753 mmHg 89%
    06:00 +26°C° 0 mm 3 mps 753 mmHg 88%
    07:00 +27°C° 0 mm 3 mps 753 mmHg 87%
    08:00 +28°C° 0 mm 3 mps 754 mmHg 83%
    09:00 +29°C° 0 mm 3 mps 754 mmHg 79%
    10:00 +30°C° 0 mm 3 mps 754 mmHg 75%
    11:00 +31°C° 0 mm 2 mps 754 mmHg 71%
    12:00 +32°C° 0 mm 1 mps 753 mmHg 66%
    13:00 +31°C° 0 mm 0 mps 752 mmHg 62%
    14:00 +33°C° 0 mm 1 mps 752 mmHg 63%
    15:00 +32°C° 0 mm 2 mps 751 mmHg 64%
    16:00 +32°C° 0 mm 2 mps 751 mmHg 65%
    17:00 +31°C° 0 mm 3 mps 751 mmHg 70%
    18:00 +30°C° 0 mm 3 mps 752 mmHg 75%
    19:00 +29°C° 0 mm 3 mps 753 mmHg 80%
    20:00 +29°C° 0 mm 3 mps 753 mmHg 82%
    21:00 +29°C° 0 mm 4 mps 753 mmHg 85%
    22:00 +28°C° 0 mm 4 mps 754 mmHg 87%
    23:00 +28°C° 0 mm 4 mps 753 mmHg 87%

    28 March, Thursday

    Time Temperature Precipitation Wind Pressure Humidity
    00:00 +28°C° 0 mm 4 mps 753 mmHg 88%
    01:00 +28°C° 0 mm 4 mps 753 mmHg 88%
    02:00 +28°C° 0 mm 4 mps 752 mmHg 89%
    03:00 +27°C° 0 mm 3 mps 752 mmHg 90%
    04:00 +27°C° 0 mm 3 mps 752 mmHg 91%
    05:00 +27°C° 0 mm 3 mps 752 mmHg 91%
    06:00 +27°C° 0 mm 3 mps 753 mmHg 90%
    07:00 +27°C° 0 mm 3 mps 753 mmHg 89%
    08:00 +29°C° 0 mm 3 mps 754 mmHg 83%
    09:00 +31°C° 0 mm 3 mps 754 mmHg 76%
    10:00 +32°C° 0 mm 2 mps 754 mmHg 70%
    11:00 +34°C° 0 mm 2 mps 753 mmHg 64%
    12:00 +35°C° 0 mm 2 mps 752 mmHg 58%
    13:00 +37°C° 0 mm 2 mps 752 mmHg 52%
    14:00 +36°C° 0 mm 3 mps 751 mmHg 53%
    15:00 +36°C° 0 mm 4 mps 751 mmHg 54%
    16:00 +36°C° 0 mm 4 mps 750 mmHg 55%
    17:00 +35°C° 0 mm 5 mps 751 mmHg 64%
    18:00 +33°C° 0 mm 5 mps 751 mmHg 73%
    19:00 +30°C° 0 mm 5 mps 752 mmHg 81%
    20:00 +30°C° 0.1 mm 5 mps 752 mmHg 83%
    21:00 +30°C° 0.1 mm 4 mps 753 mmHg 84%
    22:00 +30°C° 0.1 mm 4 mps 753 mmHg 85%
    23:00 +29°C° 0.2 mm 3 mps 753 mmHg 86%

    29 March, Friday

    Time Temperature Precipitation Wind Pressure Humidity
    00:00 +29°C° 0.2 mm 3 mps 753 mmHg 86%
    01:00 +29°C° 0.2 mm 3 mps 752 mmHg 87%
    02:00 +29°C° 0.1 mm 4 mps 752 mmHg 87%
    03:00 +29°C° 0.1 mm 4 mps 752 mmHg 88%
    04:00 +29°C° 0.1 mm 4 mps 751 mmHg 89%
    05:00 +29°C° 0.2 mm 4 mps 752 mmHg 88%
    06:00 +29°C° 0.2 mm 4 mps 752 mmHg 88%
    07:00 +29°C° 0.2 mm 5 mps 753 mmHg 88%
    08:00 +30°C° 0 mm 4 mps 753 mmHg 80%
    09:00 +33°C° 0 mm 4 mps 753 mmHg 72%
    10:00 +35°C° 0 mm 4 mps 753 mmHg 65%
    11:00 +36°C° 0 mm 3 mps 752 mmHg 60%
    12:00 +37°C° 0 mm 3 mps 752 mmHg 56%
    13:00 +38°C° 0 mm 3 mps 751 mmHg 51%
    14:00 +37°C° 0.3 mm 4 mps 751 mmHg 56%
    15:00 +36°C° 0.3 mm 5 mps 750 mmHg 61%
    16:00 +35°C° 0.3 mm 5 mps 750 mmHg 66%
    17:00 +34°C° 0.1 mm 5 mps 751 mmHg 71%
    18:00 +33°C° 0.1 mm 4 mps 751 mmHg 75%
    19:00 +30°C° 0.1 mm 4 mps 752 mmHg 80%
    20:00 +30°C° 0 mm 4 mps 752 mmHg 81%
    21:00 +30°C° 0 mm 3 mps 752 mmHg 82%
    22:00 +30°C° 0 mm 3 mps 752 mmHg 84%
    23:00 +29°C° 1.2 mm 3 mps 752 mmHg 86%
    Show more